カタログに戻る

THOR ABLE DEB

YO

運用中VLEO
NORAD 115·DEBRIS·🇺🇸 United States

打ち上げ Apr 1, 1960 から Cape Canaveral Space Force Station

Loading…

次のパス (今後24時間)

TLE

最新Source: Space-Track

元期: Sep 5, 2026, 12:38 UTC

1 00115U 60002D   26248.52654554  .00001502  00000-0  14404-3 0  9997
2 00115  48.1627  65.4739 0026530 260.5129  99.2791 14.98551590530183

AllMySatでTHOR ABLE DEBをリアルタイム追跡

Download on the App Store